EXPRESS-AT2

Last updated on Tue Oct 15 2024 00:02:39 GMT+0000 (Coordinated Universal Time)

1 39613U 14010B 24288.51786094 -.00000283 00000+0 00000+0 0 9994 2 39613 0.0145 247.8879 0001960 11.0967 90.8655 1.00273365 38370
UTC large
Height (km)
Speed (km/s)
/
Latitude / Longitude
Inclination (degrees)
Orbital Period (minutes)
Azimuth
Elevation
Range (km)
Doppler Factor

Next 0 passes for location: London (51.5072 / 0.1276)

Sorry there are no passes over London.